Location: Limoges
(45.8354°N, 1.2645°E)
Time: 17:33:54
(UTC+02:00)

ISS - Pass Details

Date: 09 September 2021
Orbit: 417 x 423 km, 51.6° (Epoch: 26 September)

Event Time Altitude Azimuth Distance (km) Brightness Sun altitude
Exits shadow 04:59:14 35° 27° (NNE) 693 -2.2 -24.2°
Drops below altitude 10° 05:02:04 10° 83° (E) 1,494 -0.2 -23.8°
Enters shadow 06:01:26 -63° 294° (WNW) 11,845 3.5 -14.9°
Maximum altitude 06:35:51 63° 212° (SSW) 470 -3.7 -9.3°
